owner,sensor,date,latitude,longitude,vertical_datum,direction_of_sea_water_velocity,sea_water_speed,upward_sea_water_velocity,qcFlag 
TABS,ioos:station:wmo:42048:1,2010-11-01T00:00:00Z,27.9396,-96.8429,2.0,35.99139016,20.99846899,-99999.0,'11111222,11111222,99999999' 
TABS,ioos:station:wmo:42048:1,2010-11-01T00:30:00Z,27.9396,-96.8429,2.0,31.99999848,22.0034361,-99999.0,'11111222,11111222,99999999' 
TABS,ioos:station:wmo:42048:1,2010-11-01T01:00:00Z,27.9396,-96.8429,2.0,28.99380228,21.00212608,-99999.0,'11111222,11111222,99999999' 
TABS,ioos:station:wmo:42048:1,2010-11-01T01:30:00Z,27.9396,-96.8429,2.0,29.01069267,24.00145204,-99999.0,'11111222,11111222,99999999' 
TABS,ioos:station:wmo:42048:1,2010-11-01T02:00:00Z,27.9396,-96.8429,2.0,30.00564362,23.996008,-99999.0,'11111222,11111222,99999999' 
TABS,ioos:station:wmo:42048:1,2010-11-01T02:30:00Z,27.9396,-96.8429,2.0,34.99965858,25.00131997,-99999.0,'11111222,11111222,99999999' 
TABS,ioos:station:wmo:42048:1,2010-11-01T03:00:00Z,27.9396,-96.8429,2.0,38.01119946,24.0007604,-99999.0,'11111222,11111222,99999999' 
TABS,ioos:station:wmo:42048:1,2010-11-01T03:30:00Z,27.9396,-96.8429,2.0,48.00320672,22.00002045,-99999.0,'11111222,11111222,99999999' 
TABS,ioos:station:wmo:42048:1,2010-11-01T04:00:00Z,27.9396,-96.8429,2.0,37.99772523,24.99884197,-99999.0,'11111222,11111222,99999999' 
TABS,ioos:station:wmo:42048:1,2010-11-01T04:30:00Z,27.9396,-96.8429,2.0,44.01150904,24.999946,-99999.0,'11111222,11111222,99999999' 
TABS,ioos:station:wmo:42048:1,2010-11-01T05:00:00Z,27.9396,-96.8429,2.0,42.00405298,28.00435145,-99999.0,'11111222,11111222,99999999' 
TABS,ioos:station:wmo:42048:1,2010-11-01T05:30:00Z,27.9396,-96.8429,2.0,45.00010523,28.00142853,-99999.0,'11111222,11111222,99999999' 
TABS,ioos:station:wmo:42048:1,2010-11-01T06:00:00Z,27.9396,-96.8429,2.0,50.99425132,29.9968415,-99999.0,'11111222,11111222,99999999' 
TABS,ioos:station:wmo:42048:1,2010-11-01T06:30:00Z,27.9396,-96.8429,2.0,46.98942009,32.99934848,-99999.0,'11111222,11111222,99999999' 
TABS,ioos:station:wmo:42048:1,2010-11-01T07:00:00Z,27.9396,-96.8429,2.0,47.99739759,32.99631495,-99999.0,'11111222,11111222,99999999' 
TABS,ioos:station:wmo:42048:1,2010-11-01T07:30:00Z,27.9396,-96.8429,2.0,46.98942009,32.99934848,-99999.0,'11111222,11111222,99999999' 
TABS,ioos:station:wmo:42048:1,2010-11-01T08:00:00Z,27.9396,-96.8429,2.0,47.00447042,36.9972499,-99999.0,'11111222,11111222,99999999' 
TABS,ioos:station:wmo:42048:1,2010-11-01T08:30:00Z,27.9396,-96.8429,2.0,45.00010523,36.99582679,-99999.0,'11111222,11111222,99999999' 
TABS,ioos:station:wmo:42048:1,2010-11-01T09:00:00Z,27.9396,-96.8429,2.0,47.00694827,41.99961905,-99999.0,'11111222,11111222,99999999' 
TABS,ioos:station:wmo:42048:1,2010-11-01T09:30:00Z,27.9396,-96.8429,2.0,44.00390646,23.99576004,-99999.0,'11111222,11111222,99999999' 
TABS,ioos:station:wmo:42048:1,2010-11-01T10:00:00Z,27.9396,-96.8429,2.0,50.99978632,40.99633642,-99999.0,'11111222,11111222,99999999' 
TABS,ioos:station:wmo:42048:1,2010-11-01T10:30:00Z,27.9396,-96.8429,2.0,48.00320672,44.00004091,-99999.0,'11111222,11111222,99999999' 
TABS,ioos:station:wmo:42048:1,2010-11-01T11:00:00Z,27.9396,-96.8429,2.0,50.99656528,43.99650213,-99999.0,'11111222,11111222,99999999' 
TABS,ioos:station:wmo:42048:1,2010-11-01T11:30:00Z,27.9396,-96.8429,2.0,50.00612693,44.00139202,-99999.0,'11111222,11111222,99999999' 
TABS,ioos:station:wmo:42048:1,2010-11-01T12:00:00Z,27.9396,-96.8429,2.0,52.99377063,42.00011905,-99999.0,'11111222,11111222,99999999' 
TABS,ioos:station:wmo:42048:1,2010-11-01T12:30:00Z,27.9396,-96.8429,2.0,50.99978632,40.99633642,-99999.0,'11111222,11111222,99999999' 
TABS,ioos:station:wmo:42048:1,2010-11-01T13:00:00Z,27.9396,-96.8429,2.0,290.0650055,3.002215848,-99999.0,'11133222,11111222,99999999' 
TABS,ioos:station:wmo:42048:1,2010-11-01T13:30:00Z,27.9396,-96.8429,2.0,50.00664462,40.99890974,-99999.0,'11111222,11111222,99999999' 
TABS,ioos:station:wmo:42048:1,2010-11-01T14:00:00Z,27.9396,-96.8429,2.0,69.00171601,41.99912618,-99999.0,'11111222,11111222,99999999' 
TABS,ioos:station:wmo:42048:1,2010-11-01T14:30:00Z,27.9396,-96.8429,2.0,44.00745822,39.9999625,-99999.0,'11111222,11111222,99999999' 
TABS,ioos:station:wmo:42048:1,2010-11-01T15:00:00Z,27.9396,-96.8429,2.0,44.00070689,45.00005,-99999.0,'11111222,11111222,99999999' 
TABS,ioos:station:wmo:42048:1,2010-11-01T15:30:00Z,27.9396,-96.8429,2.0,40.99353591,41.99872022,-99999.0,'11111222,11111222,99999999' 
TABS,ioos:station:wmo:42048:1,2010-11-01T16:00:00Z,27.9396,-96.8429,2.0,41.99326697,43.00179647,-99999.0,'11111222,11111222,99999999' 
TABS,ioos:station:wmo:42048:1,2010-11-01T16:30:00Z,27.9396,-96.8429,2.0,41.99326697,43.00179647,-99999.0,'11111222,11111222,99999999' 
TABS,ioos:station:wmo:42048:1,2010-11-01T17:00:00Z,27.9396,-96.8429,2.0,41.99326697,43.00179647,-99999.0,'11111222,11111222,99999999' 
TABS,ioos:station:wmo:42048:1,2010-11-01T17:30:00Z,27.9396,-96.8429,2.0,44.00195537,40.99720112,-99999.0,'11111222,11111222,99999999' 
TABS,ioos:station:wmo:42048:1,2010-11-01T18:00:00Z,27.9396,-96.8429,2.0,46.99597933,39.99701114,-99999.0,'11111222,11111222,99999999' 
TABS,ioos:station:wmo:42048:1,2010-11-01T18:30:00Z,27.9396,-96.8429,2.0,45.00010523,39.00401005,-99999.0,'11111222,11111222,99999999' 
TABS,ioos:station:wmo:42048:1,2010-11-01T19:00:00Z,27.9396,-96.8429,2.0,47.99904693,40.006322,-99999.0,'11111222,11111222,99999999' 
TABS,ioos:station:wmo:42048:1,2010-11-01T19:30:00Z,27.9396,-96.8429,2.0,45.00010523,36.99582679,-99999.0,'11111222,11111222,99999999' 
TABS,ioos:station:wmo:42048:1,2010-11-01T20:00:00Z,27.9396,-96.8429,2.0,51.0052908,38.99881665,-99999.0,'11111222,11111222,99999999' 
TABS,ioos:station:wmo:42048:1,2010-11-01T20:30:00Z,27.9396,-96.8429,2.0,50.00664462,40.99890974,-99999.0,'11111222,11111222,99999999' 
TABS,ioos:station:wmo:42048:1,2010-11-01T21:00:00Z,27.9396,-96.8429,2.0,53.00700928,40.00209245,-99999.0,'11111222,11111222,99999999' 
TABS,ioos:station:wmo:42048:1,2010-11-01T21:30:00Z,27.9396,-96.8429,2.0,48.00561427,40.99787555,-99999.0,'11111222,11111222,99999999' 
TABS,ioos:station:wmo:42048:1,2010-11-01T22:00:00Z,27.9396,-96.8429,2.0,50.00298025,36.00161108,-99999.0,'11111222,11111222,99999999' 
TABS,ioos:station:wmo:42048:1,2010-11-01T22:30:00Z,27.9396,-96.8429,2.0,45.00010523,37.99991842,-99999.0,'11111222,11111222,99999999' 
TABS,ioos:station:wmo:42048:1,2010-11-01T23:00:00Z,27.9396,-96.8429,2.0,44.00848732,37.99853813,-99999.0,'11111222,11111222,99999999' 
TABS,ioos:station:wmo:42048:1,2010-11-01T23:30:00Z,27.9396,-96.8429,2.0,41.00189141,36.00157358,-99999.0,'11111222,11111222,99999999' 
TABS,ioos:station:wmo:42048:1,2010-11-02T00:00:00Z,27.9396,-96.8429,2.0,56.99422444,35.99983611,-99999.0,'11111222,11111222,99999999' 
TABS,ioos:station:wmo:42048:1,2010-11-02T00:30:00Z,27.9396,-96.8429,2.0,45.00010523,36.99582679,-99999.0,'11111222,11111222,99999999' 
TABS,ioos:station:wmo:42048:1,2010-11-02T01:00:00Z,27.9396,-96.8429,2.0,45.00010523,36.99582679,-99999.0,'11111222,11111222,99999999' 
TABS,ioos:station:wmo:42048:1,2010-11-02T01:30:00Z,27.9396,-96.8429,2.0,45.00010523,35.00178567,-99999.0,'11111222,11111222,99999999' 
TABS,ioos:station:wmo:42048:1,2010-11-02T02:00:00Z,27.9396,-96.8429,2.0,41.00275548,34.99499536,-99999.0,'11111222,11111222,99999999' 
TABS,ioos:station:wmo:42048:1,2010-11-02T02:30:00Z,27.9396,-96.8429,2.0,47.00831752,31.881813,-99999.0,'11111222,11111222,99999999' 
TABS,ioos:station:wmo:42048:1,2010-11-02T03:00:00Z,27.9396,-96.8429,2.0,47.55379368,32.37521583,-99999.0,'11111222,11111222,99999999' 
TABS,ioos:station:wmo:42048:1,2010-11-02T03:30:00Z,27.9396,-96.8429,2.0,39.0073299,33.99965294,-99999.0,'11111222,11111222,99999999' 
TABS,ioos:station:wmo:42048:1,2010-11-02T04:00:00Z,27.9396,-96.8429,2.0,41.00275548,34.99499536,-99999.0,'11111222,11111222,99999999' 
TABS,ioos:station:wmo:42048:1,2010-11-02T04:30:00Z,27.9396,-96.8429,2.0,47.0037348,35.99960278,-99999.0,'11111222,11111222,99999999' 
TABS,ioos:station:wmo:42048:1,2010-11-02T05:00:00Z,27.9396,-96.8429,2.0,55.99645399,36.9962836,-99999.0,'11111222,11111222,99999999' 
TABS,ioos:station:wmo:42048:1,2010-11-02T05:30:00Z,27.9396,-96.8429,2.0,213.00733,33.99721312,-99999.0,'11111222,11111222,99999999' 
TABS,ioos:station:wmo:42048:1,2010-11-02T06:00:00Z,27.9396,-96.8429,2.0,80.81947951,1.00284595,-99999.0,'11133222,11111222,99999999' 
TABS,ioos:station:wmo:42048:1,2010-11-02T06:30:00Z,27.9396,-96.8429,2.0,45.00010523,32.00365292,-99999.0,'11111222,11111222,99999999' 
TABS,ioos:station:wmo:42048:1,2010-11-02T07:00:00Z,27.9396,-96.8429,2.0,45.00010523,29.99546966,-99999.0,'11111222,11111222,99999999' 
TABS,ioos:station:wmo:42048:1,2010-11-02T07:30:00Z,27.9396,-96.8429,2.0,45.00010523,25.00329578,-99999.0,'11111222,11111222,99999999' 
TABS,ioos:station:wmo:42048:1,2010-11-02T08:00:00Z,27.9396,-96.8429,2.0,46.99697169,28.00429253,-99999.0,'11111222,11111222,99999999' 
TABS,ioos:station:wmo:42048:1,2010-11-02T08:30:00Z,27.9396,-96.8429,2.0,46.99814275,29.00193959,-99999.0,'11111222,11111222,99999999' 
TABS,ioos:station:wmo:42048:1,2010-11-02T09:00:00Z,27.9396,-96.8429,2.0,41.01945419,11.00083633,-99999.0,'11111222,11111222,99999999' 
TABS,ioos:station:wmo:42048:1,2010-11-02T09:30:00Z,27.9396,-96.8429,2.0,45.00010523,29.99546966,-99999.0,'11111222,11111222,99999999' 
TABS,ioos:station:wmo:42048:1,2010-11-02T10:00:00Z,27.9396,-96.8429,2.0,45.00010523,19.99697977,-99999.0,'11111222,11111222,99999999' 
TABS,ioos:station:wmo:42048:1,2010-11-02T10:30:00Z,27.9396,-96.8429,2.0,45.00010523,16.99884702,-99999.0,'11111222,11111222,99999999' 
TABS,ioos:station:wmo:42048:1,2010-11-02T11:00:00Z,27.9396,-96.8429,2.0,23.00049269,11.00485802,-99999.0,'11111222,11111222,99999999' 
TABS,ioos:station:wmo:42048:1,2010-11-02T11:30:00Z,27.9396,-96.8429,2.0,45.00010523,7.000357134,-99999.0,'11133222,11111222,99999999' 
TABS,ioos:station:wmo:42048:1,2010-11-02T12:00:00Z,27.9396,-96.8429,2.0,35.00495042,10.99982727,-99999.0,'11111222,11111222,99999999' 
TABS,ioos:station:wmo:42048:1,2010-11-02T12:30:00Z,27.9396,-96.8429,2.0,54.02321384,5.004607877,-99999.0,'11133222,11111222,99999999' 
TABS,ioos:station:wmo:42048:1,2010-11-02T13:00:00Z,27.9396,-96.8429,2.0,51.03825792,7.999331222,-99999.0,'11133222,11111222,99999999' 
TABS,ioos:station:wmo:42048:1,2010-11-02T13:30:00Z,27.9396,-96.8429,2.0,38.01578205,5.0009999,-99999.0,'11133222,11111222,99999999' 
TABS,ioos:station:wmo:42048:1,2010-11-02T14:00:00Z,27.9396,-96.8429,2.0,270.0004209,1.0,-99999.0,'11133222,11111222,99999999' 
TABS,ioos:station:wmo:42048:1,2010-11-02T14:30:00Z,27.9396,-96.8429,2.0,8.972816092,5.001199856,-99999.0,'11133222,11111222,99999999' 
TABS,ioos:station:wmo:42048:1,2010-11-02T15:00:00Z,27.9396,-96.8429,2.0,259.9716938,4.996328652,-99999.0,'11133222,11111222,99999999' 
TABS,ioos:station:wmo:42048:1,2010-11-02T15:30:00Z,27.9396,-96.8429,2.0,224.9996843,2.998132752,-99999.0,'11133222,11111222,99999999' 
TABS,ioos:station:wmo:42048:1,2010-11-02T16:00:00Z,27.9396,-96.8429,2.0,251.9272992,2.997899264,-99999.0,'11133222,11111222,99999999' 
TABS,ioos:station:wmo:42048:1,2010-11-02T16:30:00Z,27.9396,-96.8429,2.0,290.0650055,3.002215848,-99999.0,'11133222,11111222,99999999' 
TABS,ioos:station:wmo:42048:1,2010-11-02T17:00:00Z,27.9396,-96.8429,2.0,256.9888788,7.995254843,-99999.0,'11133222,11111222,99999999' 
TABS,ioos:station:wmo:42048:1,2010-11-02T17:30:00Z,27.9396,-96.8429,2.0,224.9996843,5.996265504,-99999.0,'11133222,11111222,99999999' 
TABS,ioos:station:wmo:42048:1,2010-11-02T18:00:00Z,27.9396,-96.8429,2.0,174.0041276,8.999227745,-99999.0,'11133222,11111222,99999999' 
TABS,ioos:station:wmo:42048:1,2010-11-02T18:30:00Z,27.9396,-96.8429,2.0,197.0362547,6.997042232,-99999.0,'11133222,11111222,99999999' 
TABS,ioos:station:wmo:42048:1,2010-11-02T19:00:00Z,27.9396,-96.8429,2.0,194.0205566,8.998072016,-99999.0,'11133222,11111222,99999999' 
TABS,ioos:station:wmo:42048:1,2010-11-02T19:30:00Z,27.9396,-96.8429,2.0,207.0038171,7.003570518,-99999.0,'11133222,11111222,99999999' 
TABS,ioos:station:wmo:42048:1,2010-11-02T20:00:00Z,27.9396,-96.8429,2.0,203.9694944,7.9999125,-99999.0,'11133222,11111222,99999999' 
TABS,ioos:station:wmo:42048:1,2010-11-02T20:30:00Z,27.9396,-96.8429,2.0,240.0180098,6.003332408,-99999.0,'11133222,11111222,99999999' 
TABS,ioos:station:wmo:42048:1,2010-11-02T21:00:00Z,27.9396,-96.8429,2.0,245.034611,4.004122875,-99999.0,'11133222,11111222,99999999' 
TABS,ioos:station:wmo:42048:1,2010-11-02T21:30:00Z,27.9396,-96.8429,2.0,203.9694944,7.9999125,-99999.0,'11133222,11111222,99999999' 
TABS,ioos:station:wmo:42048:1,2010-11-02T22:00:00Z,27.9396,-96.8429,2.0,255.0101839,6.998121176,-99999.0,'11133222,11111222,99999999' 
TABS,ioos:station:wmo:42048:1,2010-11-02T22:30:00Z,27.9396,-96.8429,2.0,224.9996843,5.996265504,-99999.0,'11133222,11111222,99999999' 
TABS,ioos:station:wmo:42048:1,2010-11-02T23:00:00Z,27.9396,-96.8429,2.0,207.020174,9.002694041,-99999.0,'11133222,11111222,99999999' 
TABS,ioos:station:wmo:42048:1,2010-11-02T23:30:00Z,27.9396,-96.8429,2.0,232.9838715,10.99603565,-99999.0,'11111222,11111222,99999999' 
TABS,ioos:station:wmo:42048:1,2010-11-03T00:00:00Z,27.9396,-96.8429,2.0,224.9996843,8.004448763,-99999.0,'11133222,11111222,99999999' 
TABS,ioos:station:wmo:42048:1,2010-11-03T00:30:00Z,27.9396,-96.8429,2.0,219.0472388,6.000333324,-99999.0,'11133222,11111222,99999999' 
TABS,ioos:station:wmo:42048:1,2010-11-03T01:00:00Z,27.9396,-96.8429,2.0,240.0180098,6.003332408,-99999.0,'11133222,11111222,99999999' 
TABS,ioos:station:wmo:42048:1,2010-11-03T01:30:00Z,27.9396,-96.8429,2.0,241.9608661,7.998824914,-99999.0,'11133222,11111222,99999999' 
TABS,ioos:station:wmo:42048:1,2010-11-03T02:00:00Z,27.9396,-96.8429,2.0,224.9996843,8.004448763,-99999.0,'11133222,11111222,99999999' 
TABS,ioos:station:wmo:42048:1,2010-11-03T02:30:00Z,27.9396,-96.8429,2.0,237.0172646,11.00331768,-99999.0,'11111222,11111222,99999999' 
TABS,ioos:station:wmo:42048:1,2010-11-03T03:00:00Z,27.9396,-96.8429,2.0,237.0135442,6.998071163,-99999.0,'11133222,11111222,99999999' 
TABS,ioos:station:wmo:42048:1,2010-11-03T03:30:00Z,27.9396,-96.8429,2.0,297.078109,1.999124809,-99999.0,'11133222,11111222,99999999' 
TABS,ioos:station:wmo:42048:1,2010-11-03T04:00:00Z,27.9396,-96.8429,2.0,189.044765,6.997006503,-99999.0,'11133222,11111222,99999999' 
TABS,ioos:station:wmo:42048:1,2010-11-03T05:00:00Z,27.9396,-96.8429,2.0,207.0774776,3.998249617,-99999.0,'11133222,11111222,99999999' 
TABS,ioos:station:wmo:42048:1,2010-11-03T05:30:00Z,27.9396,-96.8429,2.0,179.9997895,1.0,-99999.0,'11133222,11111222,99999999' 
TABS,ioos:station:wmo:42048:1,2010-11-03T06:00:00Z,27.9396,-96.8429,2.0,237.0135442,6.998071163,-99999.0,'11133222,11111222,99999999' 
TABS,ioos:station:wmo:42048:1,2010-11-03T06:30:00Z,27.9396,-96.8429,2.0,245.9983542,5.998666518,-99999.0,'11133222,11111222,99999999' 
TABS,ioos:station:wmo:42048:1,2010-11-03T07:00:00Z,27.9396,-96.8429,2.0,207.0038171,7.003570518,-99999.0,'11133222,11111222,99999999' 
TABS,ioos:station:wmo:42048:1,2010-11-03T07:30:00Z,27.9396,-96.8429,2.0,237.0135442,6.998071163,-99999.0,'11133222,11111222,99999999' 
TABS,ioos:station:wmo:42048:1,2010-11-03T08:00:00Z,27.9396,-96.8429,2.0,238.9594571,8.99853877,-99999.0,'11133222,11111222,99999999' 
TABS,ioos:station:wmo:42048:1,2010-11-03T08:30:00Z,27.9396,-96.8429,2.0,252.04766,6.002216257,-99999.0,'11133222,11111222,99999999' 
TABS,ioos:station:wmo:42048:1,2010-11-03T09:00:00Z,27.9396,-96.8429,2.0,244.8442655,1.999649969,-99999.0,'11133222,11111222,99999999' 
TABS,ioos:station:wmo:42048:1,2010-11-03T09:30:00Z,27.9396,-96.8429,2.0,0.000210459,3.0,-99999.0,'11133222,11111222,99999999' 
TABS,ioos:station:wmo:42048:1,2010-11-03T10:00:00Z,27.9396,-96.8429,2.0,234.0227929,5.004607877,-99999.0,'11133222,11111222,99999999' 
TABS,ioos:station:wmo:42048:1,2010-11-03T10:30:00Z,27.9396,-96.8429,2.0,236.9457407,3.996861269,-99999.0,'11133222,11111222,99999999' 
TABS,ioos:station:wmo:42048:1,2010-11-03T11:00:00Z,27.9396,-96.8429,2.0,241.9608661,7.998824914,-99999.0,'11133222,11111222,99999999' 
TABS,ioos:station:wmo:42048:1,2010-11-03T11:30:00Z,27.9396,-96.8429,2.0,279.0453964,6.997006503,-99999.0,'11133222,11111222,99999999' 
TABS,ioos:station:wmo:42048:1,2010-11-03T12:00:00Z,27.9396,-96.8429,2.0,304.9219571,4.000312488,-99999.0,'11133222,11111222,99999999' 
TABS,ioos:station:wmo:42048:1,2010-11-03T12:30:00Z,27.9396,-96.8429,2.0,280.9544579,5.999308293,-99999.0,'11133222,11111222,99999999' 
TABS,ioos:station:wmo:42048:1,2010-11-03T13:00:00Z,27.9396,-96.8429,2.0,290.0650055,3.002215848,-99999.0,'11133222,11111222,99999999' 
TABS,ioos:station:wmo:42048:1,2010-11-03T13:30:00Z,27.9396,-96.8429,2.0,280.9544579,5.999308293,-99999.0,'11133222,11111222,99999999' 
TABS,ioos:station:wmo:42048:1,2010-11-03T14:00:00Z,27.9396,-96.8429,2.0,43.94669722,5.000089999,-99999.0,'11133222,11111222,99999999' 
TABS,ioos:station:wmo:42048:1,2010-11-03T14:30:00Z,27.9396,-96.8429,2.0,308.1255137,1.004241007,-99999.0,'11133222,11111222,99999999' 
TABS,ioos:station:wmo:42048:1,2010-11-03T15:00:00Z,27.9396,-96.8429,2.0,342.0482914,6.002216257,-99999.0,'11133222,11111222,99999999' 
TABS,ioos:station:wmo:42048:1,2010-11-03T15:30:00Z,27.9396,-96.8429,2.0,308.0159925,5.0009999,-99999.0,'11133222,11111222,99999999' 
TABS,ioos:station:wmo:42048:1,2010-11-03T16:00:00Z,27.9396,-96.8429,2.0,315.0003157,5.996265504,-99999.0,'11133222,11111222,99999999' 
TABS,ioos:station:wmo:42048:1,2010-11-03T16:30:00Z,27.9396,-96.8429,2.0,310.9976672,8.002755775,-99999.0,'11133222,11111222,99999999' 
TABS,ioos:station:wmo:42048:1,2010-11-03T17:00:00Z,27.9396,-96.8429,2.0,315.0003157,8.004448763,-99999.0,'11133222,11111222,99999999' 
TABS,ioos:station:wmo:42048:1,2010-11-03T17:30:00Z,27.9396,-96.8429,2.0,299.9939178,8.001556099,-99999.0,'11133222,11111222,99999999' 
TABS,ioos:station:wmo:42048:1,2010-11-03T18:00:00Z,27.9396,-96.8429,2.0,282.0071011,4.99936996,-99999.0,'11133222,11111222,99999999' 
TABS,ioos:station:wmo:42048:1,2010-11-03T18:30:00Z,27.9396,-96.8429,2.0,306.004305,8.999027725,-99999.0,'11133222,11111222,99999999' 
TABS,ioos:station:wmo:42048:1,2010-11-03T19:00:00Z,27.9396,-96.8429,2.0,284.99176,8.002362151,-99999.0,'11133222,11111222,99999999' 
TABS,ioos:station:wmo:42048:1,2010-11-03T19:30:00Z,27.9396,-96.8429,2.0,301.99561,6.00170809,-99999.0,'11133222,11111222,99999999' 
TABS,ioos:station:wmo:42048:1,2010-11-03T20:00:00Z,27.9396,-96.8429,2.0,315.0003157,7.000357134,-99999.0,'11133222,11111222,99999999' 
TABS,ioos:station:wmo:42048:1,2010-11-03T20:30:00Z,27.9396,-96.8429,2.0,304.9219571,4.000312488,-99999.0,'11133222,11111222,99999999' 
TABS,ioos:station:wmo:42048:1,2010-11-03T21:00:00Z,27.9396,-96.8429,2.0,319.9583454,8.999788886,-99999.0,'11133222,11111222,99999999' 
TABS,ioos:station:wmo:42048:1,2010-11-03T21:30:00Z,27.9396,-96.8429,2.0,308.0159925,5.0009999,-99999.0,'11133222,11111222,99999999' 
TABS,ioos:station:wmo:42048:1,2010-11-03T22:00:00Z,27.9396,-96.8429,2.0,330.0186412,6.003332408,-99999.0,'11133222,11111222,99999999' 
TABS,ioos:station:wmo:42048:1,2010-11-03T22:30:00Z,27.9396,-96.8429,2.0,289.8855395,1.99919984,-99999.0,'11133222,11111222,99999999' 
TABS,ioos:station:wmo:42048:1,2010-11-03T23:00:00Z,27.9396,-96.8429,2.0,297.078109,3.998249617,-99999.0,'11133222,11111222,99999999' 
TABS,ioos:station:wmo:42048:1,2010-11-03T23:30:00Z,27.9396,-96.8429,2.0,0.000210459,5.0,-99999.0,'11133222,11111222,99999999' 
TABS,ioos:station:wmo:42048:1,2010-11-04T00:00:00Z,27.9396,-96.8429,2.0,0.000210459,6.0,-99999.0,'11133222,11111222,99999999' 
TABS,ioos:station:wmo:42048:1,2010-11-04T00:30:00Z,27.9396,-96.8429,2.0,346.9895102,7.995254843,-99999.0,'11133222,11111222,99999999' 
TABS,ioos:station:wmo:42048:1,2010-11-04T01:00:00Z,27.9396,-96.8429,2.0,299.9939178,8.001556099,-99999.0,'11133222,11111222,99999999' 
TABS,ioos:station:wmo:42048:1,2010-11-04T01:30:00Z,27.9396,-96.8429,2.0,305.0527128,6.999521412,-99999.0,'11133222,11111222,99999999' 
TABS,ioos:station:wmo:42048:1,2010-11-04T02:00:00Z,27.9396,-96.8429,2.0,282.0071011,4.99936996,-99999.0,'11133222,11111222,99999999' 
TABS,ioos:station:wmo:42048:1,2010-11-04T02:30:00Z,27.9396,-96.8429,2.0,270.0004209,5.0,-99999.0,'11133222,11111222,99999999' 
TABS,ioos:station:wmo:42048:1,2010-11-04T03:00:00Z,27.9396,-96.8429,2.0,137.0250639,5.002369439,-99999.0,'11133222,11111222,99999999' 
TABS,ioos:station:wmo:42048:1,2010-11-04T03:30:00Z,27.9396,-96.8429,2.0,315.0003157,5.996265504,-99999.0,'11133222,11111222,99999999' 
TABS,ioos:station:wmo:42048:1,2010-11-04T04:00:00Z,27.9396,-96.8429,2.0,287.7963682,0.850705589,-99999.0,'11133222,11111222,99999999' 
TABS,ioos:station:wmo:42048:1,2010-11-04T04:30:00Z,27.9396,-96.8429,2.0,270.0004209,7.0,-99999.0,'11133222,11111222,99999999' 
TABS,ioos:station:wmo:42048:1,2010-11-04T05:00:00Z,27.9396,-96.8429,2.0,347.0251429,11.00087724,-99999.0,'11111222,11111222,99999999' 
TABS,ioos:station:wmo:42048:1,2010-11-04T05:30:00Z,27.9396,-96.8429,2.0,270.0004209,7.0,-99999.0,'11133222,11111222,99999999' 
TABS,ioos:station:wmo:42048:1,2010-11-04T06:00:00Z,27.9396,-96.8429,2.0,218.0153611,5.0009999,-99999.0,'11133222,11111222,99999999' 
TABS,ioos:station:wmo:42048:1,2010-11-04T06:30:00Z,27.9396,-96.8429,2.0,245.034611,4.004122875,-99999.0,'11133222,11111222,99999999' 
TABS,ioos:station:wmo:42048:1,2010-11-04T07:00:00Z,27.9396,-96.8429,2.0,224.9996843,7.000357134,-99999.0,'11133222,11111222,99999999' 
TABS,ioos:station:wmo:42048:1,2010-11-04T07:30:00Z,27.9396,-96.8429,2.0,219.1074705,1.997523467,-99999.0,'11133222,11111222,99999999' 
TABS,ioos:station:wmo:42048:1,2010-11-04T08:00:00Z,27.9396,-96.8429,2.0,239.9941459,11.998004,-99999.0,'11111222,11111222,99999999' 
TABS,ioos:station:wmo:42048:1,2010-11-04T08:30:00Z,27.9396,-96.8429,2.0,258.0027078,8.996493761,-99999.0,'11133222,11111222,99999999' 
TABS,ioos:station:wmo:42048:1,2010-11-04T09:00:00Z,27.9396,-96.8429,2.0,217.9991049,21.00208085,-99999.0,'11111222,11111222,99999999' 
TABS,ioos:station:wmo:42048:1,2010-11-04T09:30:00Z,27.9396,-96.8429,2.0,236.9457407,3.996861269,-99999.0,'11133222,11111222,99999999' 
TABS,ioos:station:wmo:42048:1,2010-11-04T10:00:00Z,27.9396,-96.8429,2.0,237.0135442,6.998071163,-99999.0,'11133222,11111222,99999999' 
TABS,ioos:station:wmo:42048:1,2010-11-04T10:30:00Z,27.9396,-96.8429,2.0,253.9980152,14.00254263,-99999.0,'11111222,11111222,99999999' 
TABS,ioos:station:wmo:42048:1,2010-11-04T11:00:00Z,27.9396,-96.8429,2.0,242.0153049,13.00001538,-99999.0,'11111222,11111222,99999999' 
TABS,ioos:station:wmo:42048:1,2010-11-04T11:30:00Z,27.9396,-96.8429,2.0,236.0050404,12.00110828,-99999.0,'11111222,11111222,99999999' 
TABS,ioos:station:wmo:42048:1,2010-11-04T12:00:00Z,27.9396,-96.8429,2.0,270.0004209,1.0,-99999.0,'11133222,11111222,99999999' 
TABS,ioos:station:wmo:42048:1,2010-11-04T12:30:00Z,27.9396,-96.8429,2.0,67.99398582,12.99689963,-99999.0,'11111222,11111222,99999999' 
TABS,ioos:station:wmo:42048:1,2010-11-04T13:00:00Z,27.9396,-96.8429,2.0,245.0043798,15.99836242,-99999.0,'11111222,11111222,99999999' 
TABS,ioos:station:wmo:42048:1,2010-11-04T13:30:00Z,27.9396,-96.8429,2.0,237.0158183,18.00138884,-99999.0,'11111222,11111222,99999999' 
TABS,ioos:station:wmo:42048:1,2010-11-04T14:00:00Z,27.9396,-96.8429,2.0,224.9996843,18.00293865,-99999.0,'11111222,11111222,99999999' 
TABS,ioos:station:wmo:42048:1,2010-11-04T14:30:00Z,27.9396,-96.8429,2.0,229.9887149,20.00204989,-99999.0,'11111222,11111222,99999999' 
TABS,ioos:station:wmo:42048:1,2010-11-04T15:00:00Z,27.9396,-96.8429,2.0,230.994221,22.00528346,-99999.0,'11111222,11111222,99999999' 
TABS,ioos:station:wmo:42048:1,2010-11-04T15:30:00Z,27.9396,-96.8429,2.0,227.9957988,22.99826515,-99999.0,'11111222,11111222,99999999' 
TABS,ioos:station:wmo:42048:1,2010-11-04T16:00:00Z,27.9396,-96.8429,2.0,232.9887217,25.99807878,-99999.0,'11111222,11111222,99999999' 
TABS,ioos:station:wmo:42048:1,2010-11-04T16:30:00Z,27.9396,-96.8429,2.0,237.00561,28.99631873,-99999.0,'11111222,11111222,99999999' 